Temp
23 23 23 23 22 19 21 23 25 26 28 28 28 27 26 27 25 25 26 27 27 27 25 24 24 23 23 23 22 22 21 20 19 19 19 18 17 17 17 17 17 17 17 17 17 17 17 18 18
24 23 23 21 21 21 21 23 26 26 28 28 28 28 29 29 27 26 25 27 27 28 26 25 25 24 24 23 22 22 21 20 19 19 18 18 18 17 17 17 17 17 17 17 17 17 17 18 18
24 24 23 21 19 20 23 25 27 26 26 28 29 28 28 29 27 26 27 28 27 27 26 26 26 25 24 23 23 22 20 19 19 18 18 18 18 18 17 17 17 17 18 18 18 18 17 17 18
23 22 20 21 21 21 23 25 26 25 28 27 28 29 27 29 27 29 28 27 27 27 27 26 26 25 24 23 23 22 21 20 19 18 18 17 17 17 18 17 17 17 17 18 18 18 17 17 17
23 19 20 20 21 22 24 24 25 26 27 28 28 29 27 28 28 28 28 27 28 27 26 26 26 25 24 24 23 22 21 21 19 18 18 18 18 17 17 17 17 17 17 18 18 18 18 17 17
21 19 20 20 22 24 24 24 26 27 28 28 28 26 27 26 27 28 27 28 28 28 27 26 25 25 24 24 23 22 21 21 20 18 18 18 17 17 17 17 17 17 17 17 17 17 17 17 17
21 19 20 21 23 24 25 25 27 28 27 28 27 28 26 25 27 28 28 27 27 27 26 26 25 25 24 23 22 22 21 21 20 19 18 18 18 17 16 16 16 16 16 16 16 17 17 17 17
21 20 22 20 23 24 26 28 27 28 28 27 26 27 27 26 28 27 26 26 26 26 26 26 25 24 23 22 22 21 21 20 20 19 18 18 17 17 16 15 15 15 16 16 16 16 16 16 16
21 20 20 21 22 24 25 27 26 29 28 29 28 27 27 28 25 24 23 23 24 24 24 25 24 24 23 22 21 21 20 20 19 19 18 17 17 16 16 16 15 15 15 15 15 16 16 16 16
21 19 21 24 24 24 24 25 25 26 26 26 27 27 28 25 23 22 21 21 22 23 24 24 24 23 22 21 21 20 20 20 19 18 18 17 17 16 16 15 15 15 15 15 16 16 16 16 16
20 23 24 25 25 25 24 24 26 26 26 27 26 27 26 22 21 21 22 22 23 25 24 24 23 23 22 21 21 20 20 19 18 18 17 16 16 16 16 15 15 15 15 16 16 16 16 16 16
21 22 24 25 25 24 24 25 25 25 26 27 27 25 25 21 20 21 21 22 23 23 25 24 23 22 21 21 21 21 20 19 18 17 17 16 16 16 16 15 16 15 15 16 16 16 16 15 16
21 22 24 23 23 24 24 24 25 26 27 26 25 24 23 21 22 23 24 24 23 23 24 23 22 21 21 21 21 20 19 18 18 17 17 16 16 16 16 16 16 16 15 16 15 15 15 15 15
21 22 23 23 24 25 24 25 25 26 27 25 25 24 23 21 22 22 22 23 24 24 24 23 22 21 21 21 20 20 19 18 18 17 17 16 16 16 16 16 16 15 16 15 15 15 15 15 15
22 21 21 23 25 24 25 24 25 27 26 24 25 25 23 21 22 21 23 24 25 23 23 23 22 21 22 21 20 19 19 18 18 18 17 16 16 16 16 16 16 16 15 15 15 15 15 15 15
23 22 21 24 24 24 24 23 26 26 25 25 25 25 23 21 21 23 24 24 24 23 23 22 21 22 21 20 20 19 19 18 18 17 17 16 16 16 16 16 16 15 15 15 15 15 15 15 15
19 21 21 22 24 24 23 24 26 25 26 24 24 23 23 22 20 22 24 24 23 23 22 21 21 21 21 20 19 19 19 19 18 18 17 17 16 16 15 15 15 15 15 15 15 15 14 15 15
19 19 20 22 25 23 22 22 25 25 25 23 23 22 22 21 22 23 22 22 22 22 22 22 21 21 20 20 19 19 19 19 19 18 17 17 16 16 15 15 15 15 14 14 14 14 14 15 15
21 21 21 22 24 24 22 22 23 24 23 23 24 24 23 22 22 22 20 20 20 21 21 21 21 20 19 19 18 19 19 19 19 18 17 17 16 16 15 15 15 15 14 15 14 14 14 14 15
20 20 21 22 24 23 22 22 23 24 24 23 25 25 24 22 21 17 16 17 19 19 20 20 20 20 19 19 19 19 19 18 18 18 17 16 16 15 15 15 15 14 14 14 14 13 14 14 15
20 20 21 21 24 23 22 22 23 24 23 23 23 21 21 20 19 17 15 16 17 17 19 20 20 20 19 19 20 19 18 18 18 17 17 16 16 15 15 15 14 14 14 14 14 14 14 14 14
20 22 22 22 22 20 22 18 21 22 24 23 24 23 22 21 19 15 15 14 17 17 20 20 20 20 20 19 19 19 18 17 17 16 16 15 15 15 15 14 14 14 14 14 14 14 15 15 15
21 24 22 22 21 20 21 19 22 22 22 24 23 23 22 21 16 15 15 16 17 19 20 20 20 20 20 20 19 19 18 17 17 16 15 15 15 15 15 15 15 15 15 15 15 15 15 15 16
23 23 21 19 18 19 21 20 20 21 24 25 24 24 23 18 15 14 15 17 17 19 19 19 20 20 20 19 19 19 19 18 17 16 15 15 15 15 15 15 15 15 15 15 15 15 15 15 16
22 19 17 15 15 18 21 20 23 22 22 24 25 23 19 16 15 15 16 16 15 17 19 19 20 20 20 19 19 19 18 18 17 16 15 14 14 15 15 16 16 16 16 16 16 16 15 15 16
22 20 16 18 18 20 20 20 23 23 24 23 23 22 16 14 15 16 17 16 16 17 18 19 20 20 19 19 19 19 18 17 17 15 15 15 15 15 15 16 16 16 16 16 16 16 16 16 16
21 19 21 20 20 19 19 21 24 24 25 25 23 19 16 14 15 16 16 15 16 17 18 20 20 19 20 20 19 19 18 18 17 15 15 15 15 15 15 16 16 16 16 16 16 16 16 16 16
21 21 20 19 18 20 20 21 22 26 25 25 21 18 15 14 14 16 15 15 17 18 19 20 20 20 20 20 19 19 19 18 17 16 16 15 15 15 15 16 16 16 16 16 16 16 15 15 15
20 20 19 20 17 18 18 20 20 24 24 24 21 18 15 15 15 16 15 16 17 19 19 20 20 20 20 20 19 19 19 18 17 16 16 15 15 15 15 15 16 16 15 15 16 14 14 14 14
23 22 19 21 18 19 19 19 23 22 22 21 21 18 15 15 15 16 15 15 16 17 18 19 20 20 20 20 20 19 20 18 17 16 16 15 15 15 15 15 15 16 15 15 15 14 15 14 14
Height
791 793 793 798 825 830 832 813 789 786 778 763 758 766 772 766 781 797 748 749 754 758 763 769 774 777 780 783 785 787 789 790 791 793 794 795 796 797 798 800 802 802 803 800 799 801 803 803 804
789 792 794 802 832 841 826 797 790 780 767 761 761 759 761 764 753 750 749 749 753 757 761 766 770 773 776 780 783 786 788 790 792 792 793 794 795 796 797 797 800 801 803 801 800 801 801 802 802
791 791 798 812 831 837 819 787 779 769 760 760 761 756 756 757 749 746 745 748 752 756 760 763 767 771 774 778 781 783 786 788 790 791 792 793 793 793 795 794 797 799 800 800 799 799 800 800 801
792 793 802 822 826 813 799 779 774 773 757 756 756 763 753 745 745 742 743 747 751 753 757 761 765 768 772 775 778 781 783 785 787 788 791 792 791 791 793 791 794 796 797 798 798 798 798 798 799
792 800 819 825 816 800 785 775 772 774 769 761 761 762 757 743 743 743 742 745 747 751 755 758 764 768 769 772 775 778 781 782 784 786 787 788 789 790 791 790 791 792 793 794 795 795 794 795 798
801 806 828 828 810 788 779 769 768 767 762 758 759 763 753 742 741 742 743 745 748 750 753 757 762 766 768 769 772 775 778 780 781 783 785 785 785 788 788 788 788 789 789 790 792 793 793 793 793
803 815 821 813 801 791 777 760 765 764 763 760 752 761 750 741 741 742 744 746 747 750 753 757 760 763 767 769 770 773 775 778 779 780 782 782 783 785 785 784 785 785 786 786 787 788 789 789 789
795 808 811 809 800 792 763 756 753 758 759 748 749 760 755 736 736 738 743 747 747 750 753 754 756 759 762 767 769 771 773 774 776 778 779 781 781 782 781 781 780 780 781 782 783 783 784 785 786
788 813 818 802 797 777 760 763 755 748 754 749 746 745 737 737 736 738 740 744 745 748 750 752 754 756 760 765 769 770 771 772 774 776 777 778 779 779 779 778 777 777 778 778 779 780 780 781 783
793 808 799 771 768 768 762 764 762 758 755 752 746 736 735 737 737 737 737 737 740 742 745 749 751 753 757 762 766 768 769 771 772 774 775 776 776 777 777 776 776 776 776 776 776 776 776 778 779
783 785 768 763 759 762 761 760 756 758 759 747 749 738 733 734 738 733 733 733 729 735 741 743 746 752 755 758 762 766 768 769 770 772 772 773 774 774 774 774 774 774 774 774 773 773 773 774 776
783 771 764 755 757 761 763 756 755 754 747 735 734 731 730 732 733 732 727 727 729 730 733 738 743 749 754 757 759 763 766 767 768 769 769 770 770 771 771 771 771 771 771 771 771 771 771 772 773
774 765 758 759 759 753 754 757 752 747 730 730 727 727 726 725 723 723 718 720 724 726 730 734 740 745 751 755 758 760 763 765 765 765 766 766 766 766 767 767 768 768 769 769 769 769 769 770 772
758 761 758 757 754 747 753 750 747 728 724 726 724 722 719 719 715 718 720 714 717 719 725 732 739 745 749 753 756 758 760 762 762 762 763 763 763 763 763 763 764 765 765 766 767 767 768 769 770
753 765 761 755 744 746 744 753 742 718 725 727 721 716 713 711 711 710 706 705 706 712 723 730 736 743 747 752 754 756 757 758 759 759 759 758 758 758 759 759 759 760 762 763 764 765 766 767 768
756 759 770 745 739 740 746 751 722 717 723 720 716 712 710 705 702 699 701 700 704 711 719 727 734 740 746 749 752 754 755 755 756 756 755 755 754 754 755 755 755 757 759 760 761 762 763 765 766
766 767 766 758 735 740 743 742 719 716 718 718 712 708 705 701 697 693 693 696 699 706 715 725 732 738 744 748 751 752 753 753 753 751 751 750 750 751 752 752 754 755 755 756 757 759 761 763 765
767 770 764 753 736 738 742 740 723 711 716 714 708 705 702 696 686 683 688 693 698 705 713 723 730 736 742 746 749 750 750 750 749 748 747 747 747 747 748 749 750 752 753 754 756 758 760 762 764
750 754 752 742 734 742 740 738 729 714 714 711 703 697 691 687 680 680 683 690 698 705 712 719 727 735 740 743 746 747 746 746 746 745 745 745 745 745 745 747 748 749 751 752 754 756 758 761 763
746 753 750 740 735 739 737 734 721 712 703 703 697 690 684 684 680 681 683 687 691 697 708 718 726 733 737 741 742 742 744 744 744 743 742 742 742 742 743 744 746 747 749 750 752 754 756 760 762
744 747 743 749 736 732 734 736 724 704 700 694 690 686 680 679 679 680 684 687 692 699 707 716 725 731 736 739 739 740 742 742 741 741 740 741 740 740 741 743 745 746 748 749 750 752 755 757 760
744 728 734 741 748 760 736 765 732 715 700 692 684 678 675 674 679 680 684 689 694 701 709 716 725 731 735 736 738 740 740 741 740 739 740 739 739 739 741 743 744 745 747 748 750 752 755 756 758
723 718 728 733 744 748 743 759 727 714 709 692 681 673 670 670 676 681 685 689 696 703 710 717 724 730 732 735 737 739 739 740 739 739 739 739 739 740 742 743 744 746 747 748 749 751 753 756 757
709 721 728 737 748 757 740 752 732 719 696 686 674 669 668 673 677 682 688 693 698 705 712 719 724 728 731 734 736 738 739 738 738 738 738 738 739 740 742 744 745 746 747 747 749 751 753 756 757
715 739 768 775 776 762 727 744 708 692 685 677 671 667 671 680 678 684 688 693 700 707 712 718 723 726 730 733 735 737 738 738 738 737 738 737 738 740 743 744 745 746 747 748 749 750 753 755 757
711 726 757 765 764 742 722 734 692 675 669 667 665 665 676 684 681 684 687 693 700 706 712 717 722 725 729 732 734 736 737 738 738 737 737 737 738 741 744 745 747 747 748 749 750 750 752 754 756
706 725 714 735 730 742 730 702 675 664 663 658 661 671 677 684 683 683 689 693 700 706 711 716 721 725 728 731 734 735 737 738 738 737 737 738 741 743 745 746 747 748 749 750 751 751 752 754 755
690 697 728 732 749 746 725 715 701 669 665 660 668 673 680 684 686 686 691 695 700 706 711 717 721 724 727 730 733 735 736 737 738 738 738 739 742 744 746 747 748 749 750 750 752 753 753 753 755
694 704 709 713 734 741 746 718 680 668 661 662 662 668 678 678 682 685 691 696 700 706 712 717 720 723 726 730 732 734 735 737 738 738 739 741 743 744 746 747 748 750 751 752 753 753 754 754 756
666 678 697 706 726 720 723 714 659 660 658 660 662 667 677 680 681 685 689 695 701 705 712 716 719 722 726 729 732 733 735 736 737 738 740 741 743 745 747 748 749 750 752 753 755 755 756 756 757
Wind_Speed
12 13 11 3 3 4 4 6 3 5 4 4 5 5 8 5 6 5 6 24 16 35 28 38 32 27 24 22 20 18 17 17 16 13 12 11 11 11 11 10 10 9 10 9 7 7 8 8 8
18 14 4 3 3 1 5 4 6 6 5 2 2 1 1 5 3 3 6 26 17 35 28 38 34 29 27 24 21 19 19 18 17 16 15 15 15 15 14 12 12 12 13 11 10 10 9 10 9
13 5 3 3 3 5 5 5 4 8 9 7 3 3 2 4 2 5 7 28 23 31 29 34 34 30 27 25 23 21 20 19 18 17 16 16 17 17 19 15 15 15 15 14 13 12 12 11 11
3 4 4 2 7 7 5 7 4 9 8 4 2 3 3 7 4 7 15 29 26 29 31 32 34 31 27 26 23 21 19 19 19 17 17 18 18 18 18 16 18 18 17 16 15 15 15 14 13
3 3 1 2 6 6 7 8 4 7 5 4 1 4 4 3 8 12 20 30 30 31 33 33 33 30 28 26 23 21 18 17 17 17 17 18 17 17 18 18 21 18 18 18 18 17 18 17 16
3 3 1 4 6 5 6 9 3 4 3 5 3 3 6 3 11 17 23 29 29 31 33 33 32 29 27 26 23 20 17 15 13 14 15 16 15 16 18 17 17 18 18 18 19 19 20 20 18
4 4 5 4 6 6 6 4 4 1 4 5 2 3 5 5 14 18 27 28 30 31 33 32 31 29 27 25 23 20 17 14 12 13 14 13 13 15 16 16 17 18 18 19 20 20 21 19 17
5 3 3 6 4 8 6 3 4 3 6 1 4 4 7 5 19 24 28 28 29 30 32 33 32 31 29 26 23 20 17 14 12 12 11 11 11 12 12 12 13 15 17 19 20 21 22 21 18
4 2 6 7 7 8 1 3 2 1 4 2 6 5 7 5 19 25 26 27 27 28 31 33 33 31 29 26 22 18 17 14 14 13 11 11 10 9 10 11 11 10 11 13 16 19 23 22 19
5 6 11 11 8 6 4 2 5 4 9 6 7 8 10 10 22 17 16 22 30 32 33 35 35 33 29 25 22 18 15 14 15 15 13 13 11 10 9 10 10 11 12 13 15 14 18 18 21
7 14 19 14 13 2 5 8 1 6 15 14 8 11 5 8 11 17 20 24 38 40 37 38 36 33 29 26 22 17 15 15 16 16 16 16 14 12 12 12 13 12 13 13 13 14 12 17 20
4 12 19 17 9 5 6 4 13 11 17 18 14 10 5 9 12 16 21 29 31 36 41 40 37 33 29 24 21 16 14 15 17 18 17 18 17 16 15 14 12 12 10 11 10 9 10 14 16
9 10 9 10 10 11 7 11 18 19 23 12 12 9 12 11 16 27 35 32 29 38 39 38 36 33 28 23 19 16 14 16 15 15 15 18 18 18 17 16 14 13 12 11 9 8 8 10 13
6 14 17 10 20 18 16 15 11 26 17 12 11 14 10 12 18 20 19 30 34 39 39 34 33 31 27 23 18 14 14 13 13 15 16 18 18 18 18 17 17 14 12 11 9 9 8 10 12
5 7 8 11 16 8 10 14 21 28 6 11 13 13 11 13 14 17 36 34 43 37 32 30 33 30 26 21 15 14 13 13 16 17 16 17 18 18 18 18 18 15 11 11 11 10 8 9 11
2 2 3 7 5 6 11 14 23 17 8 17 14 12 11 13 16 30 33 32 27 29 26 30 32 29 23 18 16 15 14 13 17 17 16 16 16 16 17 16 15 13 12 12 13 10 10 9 10
3 9 10 8 7 4 8 12 15 5 4 11 11 12 11 13 11 25 30 31 28 28 27 34 32 28 23 18 17 14 12 12 13 12 13 13 14 15 14 14 13 12 11 11 11 11 11 10 10
5 5 6 10 2 4 10 15 18 24 9 12 10 11 11 11 18 17 24 23 24 25 31 35 31 26 22 18 15 12 11 11 10 10 10 10 11 12 13 12 11 11 10 10 11 11 11 10 10
7 14 13 3 4 7 10 10 14 17 7 10 15 16 14 13 8 9 19 23 26 29 36 36 30 25 23 19 14 11 7 8 9 9 8 8 9 9 10 10 10 10 12 10 11 12 13 12 6
9 12 17 12 4 7 10 13 15 17 16 10 16 19 15 6 4 4 14 25 34 38 39 34 28 25 23 18 11 4 4 5 8 9 7 7 6 7 9 8 7 7 10 10 10 12 12 9 10
13 18 17 11 6 6 7 13 12 14 9 7 10 12 9 10 10 7 9 17 24 32 37 32 27 24 20 13 7 4 3 4 7 6 5 5 4 4 6 8 7 6 8 8 10 13 12 8 9
18 15 15 12 5 8 5 6 9 9 17 9 11 9 9 9 4 6 8 12 23 27 34 29 25 22 17 11 7 4 2 3 4 4 4 1 1 1 2 7 7 6 7 7 10 12 11 10 9
13 7 7 7 7 2 5 5 6 5 10 14 11 11 10 7 8 9 10 17 24 33 31 27 23 19 15 11 7 4 1 3 3 2 1 2 2 3 3 4 6 5 4 6 8 11 12 10 11
4 3 4 4 1 10 13 7 5 6 12 6 6 7 7 5 8 9 12 22 25 30 28 25 22 19 15 11 7 3 2 2 2 2 3 2 4 5 5 6 6 5 2 5 6 8 11 10 7
7 7 2 4 1 6 6 6 15 11 10 9 12 10 2 3 11 13 16 13 19 25 26 24 21 17 14 10 7 4 3 2 2 2 2 1 7 8 8 8 7 5 6 5 5 6 8 8 8
15 9 6 6 3 5 5 7 9 13 14 10 11 5 8 7 9 12 14 12 20 25 26 23 20 15 14 9 7 5 4 2 1 1 1 4 7 11 9 8 5 5 5 5 4 4 8 5 4
11 10 12 1 2 1 4 8 8 6 9 5 0 4 7 7 9 13 12 14 20 25 25 23 19 14 12 10 10 6 5 2 1 2 5 7 9 9 8 5 4 3 3 3 4 4 5 5 6
9 11 7 6 6 3 5 5 6 2 6 3 6 8 7 7 9 11 10 13 21 26 24 21 18 15 12 9 9 7 5 4 4 5 7 8 7 8 6 3 3 3 4 4 5 6 4 5 7
5 7 3 8 5 5 1 6 8 9 9 9 9 8 9 13 12 12 9 15 23 25 23 20 16 13 11 10 8 7 6 6 7 5 6 6 6 7 6 4 3 4 6 7 6 7 5 8 10
22 16 8 7 4 4 3 6 3 9 7 7 7 7 6 6 10 10 11 13 18 23 22 20 15 13 11 11 8 8 6 7 7 6 7 5 6 6 6 5 6 7 8 8 7 10 9 10 10
Wind_Direction
151 138 129 92 35 64 260 257 296 280 297 314 129 160 191 166 166 211 313 180 178 178 185 192 196 196 199 203 208 211 210 210 213 216 223 227 231 232 235 239 249 260 266 273 270 264 255 252 250
148 137 94 91 100 322 262 245 234 230 233 284 303 250 262 253 210 265 132 173 181 180 182 192 197 198 202 205 211 215 216 218 221 223 222 224 227 235 235 236 246 251 257 258 264 264 261 254 250
141 119 90 120 156 211 237 227 248 299 279 213 218 218 184 236 233 200 176 176 181 185 191 194 197 199 203 206 212 214 219 223 223 221 223 229 234 233 232 235 246 251 254 254 256 258 259 255 250
163 31 39 110 240 260 239 277 301 316 326 170 134 258 275 226 186 208 181 179 182 186 194 195 198 199 203 207 213 216 220 226 233 229 232 242 238 241 247 244 244 247 252 259 260 259 255 253 251
81 51 83 251 251 257 256 262 275 296 273 315 280 259 248 235 225 191 181 180 185 189 195 195 197 203 202 206 212 216 220 230 239 234 236 246 254 252 250 249 248 246 248 254 259 261 260 258 249
61 94 52 243 231 246 263 253 289 227 287 272 206 156 255 291 193 187 185 185 188 190 193 195 198 204 207 206 208 212 218 223 236 239 242 247 251 257 258 257 255 253 252 257 260 259 259 262 253
130 108 233 252 261 281 226 171 189 221 304 297 150 219 266 270 212 195 185 190 190 194 193 196 200 204 210 210 206 209 211 217 229 239 244 247 253 260 262 263 260 260 259 257 257 258 259 259 253
137 129 258 245 218 260 217 194 163 179 279 77 147 244 267 251 198 189 187 192 195 196 198 199 201 204 208 210 208 208 209 215 227 234 234 243 261 262 268 265 260 257 256 256 258 261 259 256 251
117 157 242 240 186 241 140 331 295 334 241 261 209 231 248 290 187 180 181 195 200 202 205 204 203 204 207 209 209 210 213 222 226 230 235 250 256 277 267 261 267 268 262 256 254 255 254 254 251
168 197 227 220 216 246 298 120 322 336 300 255 264 264 264 193 180 175 187 197 206 208 208 208 207 205 202 204 207 211 215 230 228 228 240 252 258 278 261 261 260 261 263 268 262 275 248 247 243
201 225 229 261 244 227 276 309 242 273 285 279 263 278 254 181 200 189 203 204 208 212 212 209 208 206 202 200 204 211 221 233 232 234 243 245 246 263 250 258 253 260 259 271 272 273 258 242 237
212 231 236 251 260 268 253 286 282 281 263 266 276 253 220 194 204 211 203 211 212 213 215 211 206 205 203 202 203 213 231 235 236 242 248 243 244 253 247 252 256 256 254 262 269 271 261 241 235
237 241 242 249 268 260 265 256 264 276 273 272 266 268 233 218 214 217 210 211 212 216 215 211 205 203 200 200 202 216 224 231 240 245 242 239 247 250 248 252 253 250 257 257 258 265 256 244 231
196 234 253 264 258 259 269 277 279 268 272 272 271 269 248 215 217 222 216 214 215 220 221 213 206 200 198 197 208 213 221 232 239 242 245 244 250 250 252 255 251 248 254 251 257 269 259 243 230
223 238 260 251 256 247 256 274 258 266 283 264 267 267 261 227 226 218 221 212 217 219 217 206 199 190 189 200 204 207 218 232 243 251 254 250 251 252 254 258 252 242 250 246 250 250 251 243 229
190 208 239 256 220 252 162 259 270 270 259 264 265 267 253 245 222 230 232 221 218 214 206 195 184 181 189 195 198 210 224 243 256 260 261 260 255 251 248 251 247 242 249 247 241 251 247 242 230
246 249 254 289 232 232 177 270 272 270 219 268 268 261 260 260 239 234 230 221 210 204 191 182 178 180 188 190 202 215 232 251 267 269 269 263 254 249 245 248 248 244 250 241 243 248 240 238 230
194 242 238 234 262 216 256 256 274 279 235 257 269 266 255 251 250 243 220 211 197 190 182 176 176 182 186 193 207 222 240 254 277 285 280 267 252 249 246 244 243 242 246 237 233 233 227 230 228
207 231 246 250 207 244 245 264 266 279 259 272 278 279 277 263 277 206 187 181 175 176 174 174 177 182 187 196 203 223 240 259 287 292 276 265 265 252 246 245 239 230 237 239 236 227 213 212 201
210 237 252 267 229 237 271 273 272 275 275 249 268 273 271 250 232 159 160 167 172 171 174 173 178 184 189 194 201 218 258 274 287 297 285 264 272 254 245 233 223 230 224 231 225 201 190 201 197
215 224 241 247 313 253 310 289 271 279 276 262 252 246 266 234 210 186 165 163 158 162 169 169 176 183 186 189 193 206 243 282 292 308 304 277 271 267 245 222 215 219 226 226 206 191 192 171 181
221 218 241 262 273 267 143 281 302 300 299 284 281 293 272 246 271 135 147 150 159 158 167 169 174 179 181 183 188 195 226 293 291 319 306 264 113 139 185 196 212 221 208 207 194 189 193 186 167
232 204 217 231 229 229 255 277 270 272 281 282 275 267 261 238 173 165 154 148 148 162 166 169 172 176 177 177 190 193 259 280 294 303 279 198 157 146 162 173 167 170 197 201 189 197 196 197 193
136 219 30 33 54 258 263 207 225 228 239 260 263 267 296 144 131 117 124 141 150 164 165 169 171 174 178 185 194 200 243 244 279 306 273 257 203 170 153 150 141 138 156 159 182 201 207 213 213
141 99 284 332 297 235 197 185 250 254 231 226 258 273 93 208 129 138 150 149 147 162 166 170 174 175 181 194 201 202 226 221 4 313 269 233 167 161 143 142 132 113 118 125 143 183 193 209 215
196 168 154 203 226 256 164 206 248 226 233 237 248 221 147 169 141 153 154 149 155 164 170 172 174 174 181 191 195 200 201 180 354 310 148 129 149 148 137 140 121 106 93 114 143 162 187 198 198
199 191 181 354 180 323 228 281 309 229 260 267 216 159 160 161 154 152 155 150 155 166 172 173 177 182 186 196 189 199 186 185 175 125 122 130 140 148 148 146 127 92 108 97 141 158 187 191 179
158 142 180 202 204 225 268 269 234 249 246 290 228 202 164 146 149 152 153 150 163 170 171 176 182 180 188 194 196 201 172 187 168 129 119 144 151 158 166 170 139 97 110 118 124 144 158 151 153
165 174 157 170 167 170 279 262 215 229 232 234 224 177 179 157 162 159 150 161 165 170 173 179 183 184 186 188 191 194 170 190 174 146 135 153 162 168 177 164 146 139 131 129 132 115 126 142 141
199 193 156 192 195 212 166 267 217 231 256 233 227 152 139 163 153 155 154 149 159 170 178 185 185 189 192 189 189 186 172 186 179 166 158 146 156 168 169 150 139 142 136 134 136 124 111 119 132